Weather History for Escanaba, MI

Change the Weather History Date:

Sunday, January 20, 2013

  Actual Average Record
Temperature  
Mean Temperature 6 °F -  
Max Temperature 12 °F 23 °F 41 °F (1957)
Min Temperature -4 °F 7 °F -17 °F (1984)
Degree Days  
Heating Degree Days 60    
Moisture  
Dew Point -5 °F    
Average Humidity 57    
Maximum Humidity 85    
Minimum Humidity 41    
Precipitation  
Precipitation 0.00 in - - ()
Sea Level Pressure  
Sea Level Pressure 30.05 in    
Wind  
Wind Speed 16 mph (WNW)    
Max Wind Speed 25 mph    
Max Gust Speed 34 mph    
Visibility 10 miles    
Events      
Averages and records for this station are not official NWS values.
T = Trace of Precipitation, MM = Missing Value Source: NWS Daily Summary

Daily Weather History Graph

Daily Weather History Graph

Search for Another Location

Airport:

Trip Planner

Search our weather history database for the weather conditions in past years. The results will help you decide how hot, cold, wet, or windy it might be!

Date:

Astronomy

Jan. 20, 2013 Rise Set
Actual Time 8:21 AM EST 5:37 PM EST
Civil Twilight 7:48 AM EST 6:10 PM EST
Nautical Twilight 7:12 AM EST 6:47 PM EST
Astronomical Twilight 6:37 AM EST 7:22 PM EST
Moon 12:39 PM EST (1/20) 2:51 AM EST (1/20)
Length of Visible Light 10h 21m
Length of Day
9h 16m
Waxing Gibbous, 66% of the Moon is Illuminated
Jan 20
Waxing Gibbous
Jan 26
Full
Feb 3
Last Quarter
Feb 10
New
Feb 17
First Quarter

Hourly Weather History & Observations

Time (EST) Temp. Windchill Dew Point Humidity Pressure Visibility Wind Dir Wind Speed Gust Speed Precip Events Conditions
12:15 AM 15.8 °F -3.1 °F 1.4 °F 53% 29.64 in 9.0 mi WNW 25.3 mph 31.1 mph N/A   Mostly Cloudy
12:35 AM 14.0 °F -3.9 °F 1.4 °F 57% 29.66 in 10.0 mi WNW 20.7 mph 31.1 mph N/A   Partly Cloudy
12:55 AM 12.2 °F -7.5 °F -2.2 °F 53% 29.67 in 10.0 mi NW 24.2 mph 34.5 mph N/A   Clear
1:15 AM 10.4 °F -7.7 °F -2.2 °F 57% 29.70 in 10.0 mi WNW 18.4 mph 28.8 mph N/A   Clear
1:35 AM 10.4 °F -9.1 °F -2.2 °F 57% 29.72 in 10.0 mi WNW 21.9 mph 31.1 mph N/A   Clear
1:55 AM 10.4 °F -7.7 °F -2.2 °F 57% 29.75 in 10.0 mi WNW 18.4 mph 29.9 mph N/A   Clear
2:15 AM 10.4 °F -9.1 °F -2.2 °F 57% 29.76 in 10.0 mi WNW 21.9 mph 27.6 mph N/A   Clear
2:35 AM 8.6 °F -10.5 °F -2.2 °F 62% 29.78 in 10.0 mi WNW 19.6 mph 28.8 mph N/A   Clear
2:55 AM 8.6 °F -11.0 °F -2.2 °F 62% 29.78 in 10.0 mi WNW 20.7 mph 28.8 mph N/A   Clear
3:15 AM 8.6 °F -10.0 °F -2.2 °F 62% 29.81 in 10.0 mi WNW 18.4 mph 27.6 mph N/A   Clear
3:35 AM 8.6 °F -10.5 °F -2.2 °F 62% 29.84 in 10.0 mi WNW 19.6 mph 33.4 mph N/A   Clear
3:55 AM 8.6 °F -10.0 °F -2.2 °F 62% 29.86 in 10.0 mi WNW 18.4 mph 29.9 mph N/A   Clear
4:15 AM 8.6 °F -12.3 °F -2.2 °F 62% 29.86 in 10.0 mi NW 24.2 mph 32.2 mph N/A   Clear
4:35 AM 8.6 °F -10.5 °F -2.2 °F 62% 29.89 in 10.0 mi WNW 19.6 mph 26.5 mph N/A   Clear
4:55 AM 8.6 °F -10.5 °F -4.0 °F 57% 29.90 in 10.0 mi NW 19.6 mph 31.1 mph N/A   Clear
5:15 AM 8.6 °F -11.9 °F -4.0 °F 57% 29.92 in 10.0 mi NW 23.0 mph 32.2 mph N/A   Clear
5:35 AM 8.6 °F -9.5 °F -4.0 °F 57% 29.95 in 10.0 mi NW 17.3 mph 25.3 mph N/A   Clear
5:55 AM 8.6 °F -10.0 °F -4.0 °F 57% 29.96 in 10.0 mi WNW 18.4 mph 27.6 mph N/A   Clear
6:15 AM 8.6 °F -8.9 °F -5.8 °F 52% 29.98 in 10.0 mi WNW 16.1 mph 25.3 mph N/A   Clear
6:35 AM 6.8 °F -11.3 °F -4.0 °F 61% 29.99 in 10.0 mi WNW 16.1 mph 23.0 mph N/A   Clear
6:55 AM 6.8 °F -10.0 °F -2.2 °F 67% 30.01 in 10.0 mi WNW 13.8 mph 23.0 mph N/A   Clear
7:15 AM 6.8 °F -12.9 °F -4.0 °F 61% 30.02 in 10.0 mi WNW 19.6 mph 25.3 mph N/A   Clear
7:35 AM 6.8 °F -11.3 °F -5.8 °F 56% 30.04 in 10.0 mi WNW 16.1 mph 25.3 mph N/A   Clear
7:55 AM 6.8 °F -10.0 °F -5.8 °F 56% 30.05 in 10.0 mi WNW 13.8 mph 20.7 mph N/A   Clear
8:15 AM 6.8 °F -10.0 °F -5.8 °F 56% 30.08 in 10.0 mi WNW 13.8 mph 23.0 mph N/A   Clear
8:35 AM 5.0 °F -13.0 °F -5.8 °F 61% 30.09 in 10.0 mi WNW 15.0 mph 20.7 mph N/A   Clear
8:55 AM 6.8 °F -9.3 °F -7.6 °F 52% 30.11 in 10.0 mi WNW 12.7 mph - N/A   Clear
9:15 AM 6.8 °F -11.8 °F -7.6 °F 52% 30.11 in 10.0 mi WNW 17.3 mph 20.7 mph N/A   Clear
9:35 AM 6.8 °F -10.7 °F -5.8 °F 56% 30.13 in 10.0 mi WNW 15.0 mph - N/A   Clear
9:55 AM 6.8 °F -9.3 °F -5.8 °F 56% 30.15 in 10.0 mi WNW 12.7 mph 20.7 mph N/A   Clear
10:15 AM 6.8 °F -10.7 °F -5.8 °F 56% 30.15 in 10.0 mi NW 15.0 mph 25.3 mph N/A   Clear
10:35 AM 6.8 °F -11.3 °F -5.8 °F 56% 30.16 in 10.0 mi WNW 16.1 mph 25.3 mph N/A   Clear
10:55 AM 8.6 °F -10.5 °F -7.6 °F 48% 30.15 in 10.0 mi WNW 19.6 mph 26.5 mph N/A   Clear
11:15 AM 8.6 °F -10.0 °F -5.8 °F 52% 30.17 in 10.0 mi NW 18.4 mph 23.0 mph N/A   Partly Cloudy
11:35 AM 8.6 °F -7.0 °F -5.8 °F 52% 30.16 in 10.0 mi NW 12.7 mph - N/A   Clear
11:55 AM 8.6 °F -9.5 °F -5.8 °F 52% 30.15 in 10.0 mi WNW 17.3 mph 21.9 mph N/A   Partly Cloudy
12:15 PM 10.4 °F -7.2 °F -5.8 °F 48% 30.15 in 10.0 mi WNW 17.3 mph 21.9 mph N/A   Partly Cloudy
12:35 PM 10.4 °F -5.4 °F -5.8 °F 48% 30.15 in 10.0 mi WNW 13.8 mph 25.3 mph N/A   Clear
12:55 PM 10.4 °F -7.2 °F -5.8 °F 48% 30.15 in 10.0 mi NW 17.3 mph 21.9 mph N/A   Partly Cloudy
1:15 PM 10.4 °F -4.1 °F -5.8 °F 48% 30.15 in 10.0 mi NNW 11.5 mph 18.4 mph N/A   Clear
1:35 PM 12.2 °F -1.0 °F -5.8 °F 45% 30.15 in 10.0 mi NW 10.4 mph - N/A   Mostly Cloudy
1:55 PM 10.4 °F -3.3 °F -7.6 °F 44% 30.14 in 10.0 mi NW 10.4 mph 19.6 mph N/A   Mostly Cloudy
2:15 PM 12.2 °F -1.0 °F -4.0 °F 48% 30.14 in 10.0 mi WNW 10.4 mph 17.3 mph N/A   Overcast
2:35 PM 12.2 °F -0.2 °F -7.6 °F 41% 30.14 in 10.0 mi NW 9.2 mph 21.9 mph N/A   Scattered Clouds
2:55 PM 12.2 °F -4.3 °F -5.8 °F 45% 30.14 in 10.0 mi NW 16.1 mph 23.0 mph N/A   Scattered Clouds
3:15 PM 12.2 °F -1.8 °F -5.8 °F 45% 30.15 in 10.0 mi WNW 11.5 mph - N/A   Scattered Clouds
3:35 PM 12.2 °F -4.3 °F -5.8 °F 45% 30.14 in 10.0 mi NW 16.1 mph 23.0 mph N/A   Mostly Cloudy
3:55 PM 12.2 °F -1.0 °F -5.8 °F 45% 30.15 in 10.0 mi NW 10.4 mph 21.9 mph N/A   Partly Cloudy
4:15 PM 10.4 °F -4.1 °F -5.8 °F 48% 30.15 in 10.0 mi NW 11.5 mph - N/A   Mostly Cloudy
4:35 PM 10.4 °F -0.4 °F -5.8 °F 48% 30.15 in 10.0 mi NW 6.9 mph - N/A   Mostly Cloudy
4:55 PM 10.4 °F -1.5 °F -4.0 °F 52% 30.15 in 10.0 mi WNW 8.1 mph - N/A   Overcast
5:15 PM 10.4 °F -0.4 °F -4.0 °F 52% 30.15 in 10.0 mi NNW 6.9 mph - N/A   Overcast
5:35 PM 10.4 °F -2.4 °F -2.2 °F 57% 30.15 in 9.0 mi WNW 9.2 mph - N/A   Overcast
5:55 PM 10.4 °F 0.8 °F -2.2 °F 57% 30.16 in 10.0 mi NW 5.8 mph - N/A   Overcast
6:15 PM 10.4 °F 2.2 °F -2.2 °F 57% 30.16 in 10.0 mi WNW 4.6 mph - N/A   Overcast
6:35 PM 10.4 °F -0.4 °F -0.4 °F 62% 30.16 in 10.0 mi West 6.9 mph - N/A   Overcast
6:55 PM 8.6 °F 0.1 °F -2.2 °F 62% 30.16 in 10.0 mi WNW 4.6 mph - N/A   Overcast
7:15 PM 8.6 °F -1.3 °F -5.8 °F 52% 30.16 in 10.0 mi WNW 5.8 mph - N/A   Scattered Clouds
7:35 PM 6.8 °F -4.8 °F -5.8 °F 56% 30.16 in 10.0 mi WNW 6.9 mph - N/A   Mostly Cloudy
7:55 PM 6.8 °F -3.5 °F -5.8 °F 56% 30.16 in 10.0 mi WNW 5.8 mph - N/A   Scattered Clouds
8:15 PM 5.0 °F -5.6 °F -5.8 °F 61% 30.16 in 10.0 mi WNW 5.8 mph - N/A   Partly Cloudy
8:35 PM 3.2 °F -7.8 °F -5.8 °F 66% 30.16 in 10.0 mi WNW 5.8 mph - N/A   Clear
8:55 PM 3.2 °F -7.8 °F -5.8 °F 66% 30.16 in 10.0 mi WNW 5.8 mph - N/A   Clear
9:15 PM -0.4 °F -10.4 °F -9.4 °F 66% 30.16 in 10.0 mi West 4.6 mph - N/A   Clear
9:35 PM 1.4 °F -9.9 °F -4.0 °F 78% 30.15 in 10.0 mi West 5.8 mph - N/A   Clear
9:55 PM -0.4 °F -10.4 °F -5.8 °F 78% 30.15 in 10.0 mi West 4.6 mph - N/A   Clear
10:15 PM -0.4 °F - -7.6 °F 72% 30.14 in 10.0 mi Calm Calm - N/A   Clear
10:35 PM -4.0 °F - -9.4 °F 78% 30.14 in 10.0 mi Calm Calm - N/A   Clear
10:55 PM -4.0 °F -12.4 °F -7.6 °F 85% 30.14 in 10.0 mi West 3.5 mph - N/A   Clear
11:15 PM -2.2 °F -15.6 °F -7.6 °F 78% 30.13 in 10.0 mi West 6.9 mph - N/A   Clear
11:35 PM -0.4 °F -12.0 °F -7.6 °F 72% 30.12 in 10.0 mi West 5.8 mph - N/A   Clear
11:55 PM -0.4 °F -12.0 °F -7.6 °F 72% 30.11 in 10.0 mi WNW 5.8 mph - N/A   Clear